This demonstration page uses our WeatherBlox Daily Observations layout. Learn more.

41.55636, -103.73856

Hourly Observations for December 30, 2015

Temp ( °F °C ) Dew Point ( °F °C ) Humidity (%) Winds ( mph kmh ) Pressure ( in mb ) Visibility ( mi km ) Precip ( " mm )
12:53 am 00:53 Mostly Clear 3 -16 -2 -19 78 78 NNE 3 6 30.42 1030 10 16.09344 0 0
1:53 am 01:53 Cloudy 0 -18 -4 -20 84 84 NE 6 9 30.45 1031 10 16.09344 0 0
2:53 am 02:53 Cloudy 1 -17 -2 -19 85 85 NW 3 6 30.48 1032 10 16.09344 0 0
3:53 am 03:53 Clear 0 -18 -4 -20 84 84 NW 6 9 30.5 1033 10 16.09344 0 0
4:53 am 04:53 Clear 0 -18 -6 -21 78 78 NW 7 11 30.5 1033 9 14.484096 0 0
5:53 am 05:53 Clear 0 -18 -6 -21 78 78 NNW 8 13 30.5 1033 10 16.09344 0 0
6:53 am 06:53 Clear 0 -18 -6 -21 78 78 NNW 8 13 30.53 1034 9 14.484096 0 0
7:53 am 07:53 Sunny -2 -19 -8 -22 77 77 NW 7 11 30.53 1034 7 11.265408 0 0
8:53 am 08:53 Sunny 1 -17 -2 -19 85 85 W 3 6 30.53 1034 8 12.874752 0 0
9:53 am 09:53 Sunny 5 -15 3 -16 92 92 Calm 30.5 1033 8 12.874752 0 0
10:53 am 10:53 Sunny 10 -12 3 -16 72 72 NW 7 11 30.45 1031 10 16.09344 0 0
11:53 am 11:53 Sunny 12 -11 7 -14 79 79 WNW 9 15 30.39 1029 10 16.09344 0 0
12:53 pm 12:53 Sunny 16 -9 7 -14 67 67 W 8 13 30.36 1028 10 16.09344 0 0
1:53 pm 13:53 Sunny 18 -8 9 -13 68 68 W 7 11 30.36 1028 10 16.09344 0 0
2:53 pm 14:53 Sunny 18 -8 9 -13 68 68 Calm 30.36 1028 10 16.09344 0 0
3:53 pm 15:53 Sunny 16 -9 9 -13 73 73 WSW 5 7 30.39 1029 10 16.09344 0 0
4:53 pm 16:53 Clear 14 -10 7 -14 73 73 Calm 30.42 1030 10 16.09344 0 0
5:53 pm 17:53 Clear 10 -12 5 -15 79 79 NNW 5 7 30.45 1031 10 16.09344 0 0
6:53 pm 18:53 Clear 3 -16 1 -17 92 92 N 8 13 30.56 1035 8 12.874752 0 0
7:53 pm 19:53 Clear 10 -12 7 -14 85 85 NW 3 6 30.48 1032 10 16.09344 0 0
8:53 pm 20:53 Clear 7 -14 3 -16 85 85 NW 5 7 30.53 1034 8 12.874752 0 0
9:53 pm 21:53 Clear 3 -16 0 -18 85 85 WNW 7 11 30.56 1035 9 14.484096 0 0
10:53 pm 22:53 Clear 1 -17 -2 -19 85 85 NNW 9 15 30.62 1037 8 12.874752 0 0
11:53 pm 23:53 Clear 5 -15 1 -17 85 85 NW 6 9 30.56 1035 9 14.484096 0 0

Powered by AerisWeather